FW0782 Weather Reports


Display with metric or nautical units.
time (UTC)temp
F
wind
direction
speed
MPH
gust
MPH
rain 1hr
in
rain 24hr
in
rain mn
in
humidity
%
barometer
mb
20260506013719 49 44 4.0 8.0 0.00 0.00 0.00 79 1009.8
20260506013219 49 53 5.0 12.0 0.00 0.00 0.00 79 1009.7
20260506013019 49 50 4.0 7.0 0.00 0.00 0.00 79 1009.5
20260506012718 49 47 4.0 6.0 0.00 0.00 0.00 79 1009.7
20260506012219 49 47 5.0 7.0 0.00 0.00 0.00 79 1009.8
20260506012019 49 47 4.0 7.0 0.00 0.00 0.00 79 1009.5
20260506011719 48 43 5.0 8.0 0.00 0.00 0.00 79 1009.7
20260506011218 48 54 5.0 12.0 0.00 0.00 0.00 79 1009.7
20260506011019 48 61 4.0 8.0 0.00 0.00 0.00 79 1009.5
20260506010718 48 60 5.0 8.0 0.00 0.00 0.00 79 1009.8
20260506010218 48 53 5.0 9.0 0.00 0.00 0.00 79 1009.8
20260506010018 49 53 5.0 9.0 0.00 0.00 0.00 79 1009.5
20260506005719 48 51 5.0 9.0 0.00 0.00 0.00 79 1009.8
20260506005218 49 59 6.0 9.0 0.00 0.00 0.00 79 1009.9
20260506005019 49 58 6.0 10.0 0.00 0.00 0.00 78 1009.6
20260506004718 49 53 5.0 9.0 0.00 0.00 0.00 79 1009.9
20260506004218 49 53 5.0 10.0 0.00 0.00 0.00 79 1009.9
20260506003719 49 55 5.0 9.0 0.00 0.00 0.00 79 1009.9
20260506003218 49 45 5.0 10.0 0.00 0.00 0.00 79 1010.0
20260506003019 49 44 5.0 10.0 0.00 0.00 0.00 79 1009.7
20260506002719 49 58 4.0 10.0 0.00 0.00 0.00 79 1010.1
20260506002219 49 51 4.0 9.0 0.00 0.00 0.00 79 1010.1
20260506002019 49 51 6.0 9.0 0.00 0.00 0.00 78 1009.8
20260506001719 49 54 5.0 9.0 0.00 0.00 0.00 78 1010.1
20260506001218 49 53 6.0 9.0 0.00 0.00 0.00 78 1010.2
20260506001019 49 49 6.0 9.0 0.00 0.00 0.00 78 1009.9
20260506000719 49 60 4.0 10.0 0.00 0.00 0.00 78 1010.2
20260506000019 49 57 5.0 7.0 0.00 0.00 0.00 78 1009.9
20260505235718 49 57 3.0 6.0 0.00 0.00 0.00 78 1010.2
20260505235219 49 60 5.0 7.0 0.00 0.00 0.00 78 1010.2
20260505235019 49 61 4.0 6.0 0.00 0.00 0.00 78 1009.9
20260505234718 49 60 4.0 8.0 0.00 0.00 0.00 78 1010.2
20260505234019 49 61 4.0 7.0 0.00 0.00 0.00 78 1009.9
20260505233719 49 59 4.0 7.0 0.00 0.00 0.00 78 1010.3
20260505233219 49 58 4.0 8.0 0.00 0.00 0.00 78 1010.3
20260505233018 49 54 4.0 6.0 0.00 0.00 0.00 78 1010.1
20260505232718 49 55 6.0 8.0 0.00 0.00 0.00 78 1010.3
20260505232219 49 57 6.0 8.0 0.00 0.00 0.00 78 1010.3
20260505231718 49 61 5.0 9.0 0.00 0.00 0.00 78 1010.3
20260505231218 49 57 6.0 9.0 0.00 0.00 0.00 78 1010.3
20260505231018 49 59 5.0 8.0 0.00 0.00 0.00 78 1010.1
20260505230718 49 57 5.0 12.0 0.00 0.00 0.00 78 1010.3
20260505230018 49 54 5.0 8.0 0.00 0.00 0.00 78 1010.1
20260505225719 50 56 6.0 8.0 0.00 0.00 0.00 78 1010.4
20260505225219 50 57 6.0 9.0 0.00 0.00 0.00 77 1010.4
20260505225019 50 53 6.0 9.0 0.00 0.00 0.00 77 1010.1
20260505224719 50 51 5.0 10.0 0.00 0.00 0.00 77 1010.4
20260505224218 50 54 5.0 10.0 0.00 0.00 0.00 77 1010.5
20260505224018 50 56 5.0 7.0 0.00 0.00 0.00 77 1010.1
20260505223718 50 59 7.0 12.0 0.00 0.00 0.00 77 1010.5
20260505223218 50 56 7.0 10.0 0.00 0.00 0.00 77 1010.5
20260505223019 50 57 8.0 11.0 0.00 0.00 0.00 77 1010.2
20260505222718 50 64 5.0 9.0 0.00 0.00 0.00 77 1010.5
20260505222218 50 53 6.0 9.0 0.00 0.00 0.00 77 1010.5
20260505222019 50 60 6.0 9.0 0.00 0.00 0.00 77 1010.2
20260505221718 50 58 6.0 8.0 0.00 0.00 0.00 78 1010.5
20260505221218 50 56 7.0 10.0 0.00 0.00 0.00 78 1010.5
20260505221019 50 57 7.0 10.0 0.00 0.00 0.00 78 1010.3
20260505220718 50 43 5.0 9.0 0.00 0.00 0.00 78 1010.6
20260505220219 50 55 7.0 9.0 0.00 0.00 0.00 78 1010.5
20260505220019 50 51 7.0 10.0 0.00 0.00 0.00 78 1010.2
20260505215718 50 56 8.0 12.0 0.00 0.00 0.00 79 1010.5
20260505215219 50 56 7.0 10.0 0.00 0.00 0.00 79 1010.5
20260505215018 51 60 6.0 10.0 0.00 0.00 0.00 79 1010.2
20260505214718 51 60 7.0 9.0 0.00 0.00 0.00 79 1010.5
20260505214218 51 57 7.0 12.0 0.00 0.00 0.00 79 1010.6
20260505214019 51 56 6.0 8.0 0.00 0.00 0.00 79 1010.2
20260505213718 51 57 6.0 9.0 0.00 0.00 0.00 79 1010.6
20260505213219 51 54 5.0 9.0 0.00 0.00 0.00 79 1010.6
20260505213018 51 56 5.0 8.0 0.00 0.00 0.00 79 1010.3
20260505212718 51 52 6.0 8.0 0.00 0.00 0.00 79 1010.6
20260505212218 51 53 7.0 12.0 0.00 0.00 0.00 79 1010.6
20260505212018 51 57 7.0 11.0 0.00 0.00 0.00 79 1010.3
20260505211718 51 64 6.0 9.0 0.00 0.00 0.00 79 1010.6
20260505211218 51 52 6.0 10.0 0.00 0.00 0.00 79 1010.6
20260505210718 51 58 6.0 10.0 0.00 0.00 0.00 79 1010.6
20260505210218 52 47 6.0 12.0 0.00 0.00 0.00 78 1010.6
20260505210018 52 56 7.0 12.0 0.00 0.00 0.00 78 1010.2
20260505205718 52 58 6.0 12.0 0.00 0.00 0.00 78 1010.6
20260505205218 52 48 6.0 10.0 0.00 0.00 0.00 78 1010.7
20260505205019 52 51 6.0 8.0 0.00 0.00 0.00 78 1010.4
20260505204718 52 54 6.0 9.0 0.00 0.00 0.00 79 1010.7
20260505204218 52 48 6.0 10.0 0.00 0.00 0.00 79 1010.7
20260505204019 52 53 7.0 10.0 0.00 0.00 0.00 79 1010.4
20260505203718 52 47 7.0 10.0 0.00 0.00 0.00 78 1010.6
20260505203218 52 52 6.0 10.0 0.00 0.00 0.00 78 1010.6
20260505203018 52 52 6.0 10.0 0.00 0.00 0.00 78 1010.3
20260505202717 52 48 7.0 10.0 0.00 0.00 0.00 78 1010.6
20260505201718 52 55 6.0 10.0 0.00 0.00 0.00 78 1010.6
20260505201218 52 52 6.0 9.0 0.00 0.00 0.00 78 1010.5
20260505201018 52 53 5.0 9.0 0.00 0.00 0.00 78 1010.2
20260505200718 52 51 6.0 12.0 0.00 0.00 0.00 78 1010.5
20260505200218 52 41 5.0 10.0 0.00 0.00 0.00 78 1010.5
20260505200018 52 43 6.0 8.0 0.00 0.00 0.00 78 1010.2
20260505195719 53 46 6.0 10.0 0.00 0.00 0.00 77 1010.5
20260505195218 53 57 5.0 8.0 0.00 0.00 0.00 77 1010.4
20260505195018 53 39 5.0 8.0 0.00 0.00 0.00 77 1010.1
20260505194718 53 43 6.0 12.0 0.00 0.00 0.00 77 1010.4
20260505194218 53 55 6.0 10.0 0.00 0.00 0.00 77 1010.4
20260505194018 53 57 6.0 9.0 0.00 0.00 0.00 77 1010.1
20260505193718 53 46 6.0 10.0 0.00 0.00 0.00 77 1010.4
20260505191721 53 38 5.0 9.0 0.00 0.00 0.00 76 1010.3
20260505191220 53 40 6.0 9.0 0.00 0.00 0.00 76 1010.2
20260505190721 53 50 6.0 10.0 0.00 0.00 0.00 76 1010.2
20260505190220 53 53 6.0 9.0 0.00 0.00 0.00 76 1010.2
20260505185721 53 32 5.0 10.0 0.00 0.00 0.00 75 1010.2
20260505185220 53 45 6.0 12.0 0.00 0.00 0.00 75 1010.0
20260505185020 53 31 5.0 10.0 0.00 0.00 0.00 75 1009.7
20260505184721 53 2 6.0 12.0 0.00 0.00 0.00 75 1010.1
20260505184220 53 17 6.0 12.0 0.00 0.00 0.00 75 1010.0
20260505184021 53 54 6.0 9.0 0.00 0.00 0.00 75 1009.7
20260505183720 53 51 6.0 15.0 0.00 0.00 0.00 75 1010.0
20260505183220 54 27 7.0 12.0 0.00 0.00 0.00 74 1009.9
20260505183021 54 10 6.0 12.0 0.00 0.00 0.00 74 1009.6
20260505182720 54 21 5.0 10.0 0.00 0.00 0.00 74 1009.9
20260505182220 54 50 6.0 12.0 0.00 0.00 0.00 74 1009.8
20260505182020 54 39 7.0 11.0 0.00 0.00 0.00 74 1009.5
20260505181720 54 16 6.0 12.0 0.00 0.00 0.00 74 1009.8
20260505181220 54 37 6.0 14.0 0.00 0.00 0.00 73 1009.8
20260505181020 54 28 6.0 14.0 0.00 0.00 0.00 73 1009.5
20260505180720 54 37 6.0 12.0 0.00 0.00 0.00 73 1009.8
20260505180220 54 28 6.0 12.0 0.00 0.00 0.00 73 1009.7
20260505180020 54 34 7.0 14.0 0.00 0.00 0.00 73 1009.4
20260505175720 55 13 6.0 12.0 0.00 0.00 0.00 73 1009.7
20260505175221 55 351 7.0 12.0 0.00 0.00 0.00 73 1009.7
20260505175020 55 23 5.0 8.0 0.00 0.00 0.00 73 1009.4
20260505174720 55 30 5.0 13.0 0.00 0.00 0.00 73 1009.7
20260505174221 55 34 6.0 12.0 0.00 0.00 0.00 73 1009.6
20260505174020 55 23 5.0 12.0 0.00 0.00 0.00 72 1009.4
20260505173721 55 41 5.0 12.0 0.00 0.00 0.00 73 1009.7
20260505173220 55 36 4.0 13.0 0.00 0.00 0.00 72 1009.6
20260505173020 55 34 6.0 9.0 0.00 0.00 0.00 72 1009.3
20260505172720 55 36 6.0 13.0 0.00 0.00 0.00 72 1009.6
20260505172020 56 15 6.0 10.0 0.00 0.00 0.00 72 1009.3
20260505171720 56 9 7.0 12.0 0.00 0.00 0.00 72 1009.7
20260505171221 56 55 5.0 12.0 0.00 0.00 0.00 73 1009.7
20260505171020 56 27 5.0 11.0 0.00 0.00 0.00 73 1009.5
20260505170720 56 15 5.0 9.0 0.00 0.00 0.00 72 1009.8
20260505170220 56 56 6.0 16.0 0.00 0.00 0.00 71 1009.7
20260505170020 56 39 6.0 13.0 0.00 0.00 0.00 71 1009.5
20260505165720 56 45 6.0 14.0 0.00 0.00 0.00 71 1009.8
20260505165020 56 14 7.0 13.0 0.00 0.00 0.00 72 1009.5
20260505164720 56 353 5.0 15.0 0.00 0.00 0.00 72 1009.8
20260505164220 56 27 5.0 9.0 0.00 0.00 0.00 72 1009.8
20260505164020 56 28 5.0 9.0 0.00 0.00 0.00 72 1009.5
20260505163720 56 24 7.0 14.0 0.00 0.00 0.00 71 1009.9
20260505163221 56 345 7.0 13.0 0.00 0.00 0.00 72 1009.9
20260505163020 56 7 6.0 13.0 0.00 0.00 0.00 72 1009.6
20260505162720 56 50 5.0 14.0 0.00 0.00 0.00 72 1009.8
20260505162220 56 3 6.0 13.0 0.00 0.00 0.00 72 1009.9
20260505162020 56 39 6.0 10.0 0.00 0.00 0.00 72 1009.5
20260505161721 56 56 6.0 13.0 0.00 0.00 0.00 72 1009.9
20260505161220 57 358 8.0 13.0 0.00 0.00 0.00 72 1009.9
20260505161020 56 2 7.0 13.0 0.00 0.00 0.00 72 1009.7
20260505160720 57 43 6.0 15.0 0.00 0.00 0.00 71 1009.9
20260505160220 57 354 6.0 13.0 0.00 0.00 0.00 71 1010.0
20260505153220 58 23 8.0 16.0 0.00 0.00 0.00 70 1010.0
20260505153020 58 356 6.0 16.0 0.00 0.00 0.00 71 1009.8
20260505152720 58 1 7.0 16.0 0.00 0.00 0.00 71 1010.1
20260505152220 59 31 6.0 13.0 0.00 0.00 0.00 70 1010.1
20260505152020 59 1 8.0 18.0 0.00 0.00 0.00 70 1009.8
20260505151720 59 359 6.0 15.0 0.00 0.00 0.00 73 1010.1
20260505151220 58 2 6.0 14.0 0.00 0.00 0.00 70 1010.1
20260505151021 58 13 5.0 9.0 0.00 0.00 0.00 70 1009.8
20260505150720 58 1 8.0 15.0 0.00 0.00 0.00 70 1010.1
20260505140220 58 344 7.0 12.0 0.00 0.00 0.00 71 1010.3
20260505130220 58 0 7.0 13.0 0.00 0.00 0.00 74 1010.6
20260505125020 57 40 6.0 10.0 0.00 0.00 0.00 74 1010.5
20260505124219 57 342 5.0 9.0 0.00 0.00 0.00 75 1010.7
20260505124020 57 4 6.0 11.0 0.00 0.00 0.00 74 1010.4
20260505123720 57 356 6.0 12.0 0.00 0.00 0.00 74 1010.7
20260505123219 57 55 7.0 12.0 0.00 0.00 0.00 73 1010.7
20260505123020 58 61 7.0 10.0 0.00 0.00 0.00 74 1010.4
20260505122020 58 1 6.0 10.0 0.00 0.00 0.00 74 1010.5
20260505121719 59 346 5.0 12.0 0.00 0.00 0.00 73 1010.8
20260505121020 59 67 7.0 11.0 0.00 0.00 0.00 73 1010.5
20260505120719 58 67 7.0 12.0 0.00 0.00 0.00 75 1010.8
20260505120020 58 69 8.0 15.0 0.00 0.00 0.00 73 1010.5
20260505115720 59 67 8.0 14.0 0.00 0.00 0.00 71 1010.8
20260505115220 58 62 10.0 16.0 0.00 0.00 0.00 70 1010.8
20260505115020 59 70 6.0 11.0 0.00 0.00 0.00 72 1010.5
20260505114220 58 62 10.0 15.0 0.00 0.00 0.00 72 1010.8
20260505114020 59 69 9.0 14.0 0.00 0.00 0.00 74 1010.5
20260505113719 59 69 6.0 13.0 0.00 0.00 0.00 74 1010.8
20260505113219 58 71 7.0 12.0 0.00 0.00 0.00 75 1010.9
20260505113019 58 70 8.0 12.0 0.00 0.00 0.00 74 1010.6
20260505112719 59 62 7.0 13.0 0.00 0.00 0.00 75 1010.9
20260505112019 58 67 9.0 13.0 0.00 0.00 0.00 73 1010.7
20260505111020 58 67 10.0 15.0 0.00 0.00 0.00 73 1010.7
20260505110220 57 65 9.0 13.0 0.00 0.00 0.00 73 1011.1
20260505102220 57 59 8.0 15.0 0.00 0.00 0.00 78 1011.4
20260505102020 56 63 8.0 14.0 0.00 0.00 0.00 77 1011.2
20260505101720 56 54 9.0 13.0 0.00 0.00 0.00 78 1011.5
20260505101019 55 64 9.0 14.0 0.00 0.00 0.00 79 1011.2
20260505100719 56 58 7.0 10.0 0.00 0.00 0.00 80 1011.5
20260505100219 55 57 5.0 8.0 0.00 0.00 0.00 81 1011.5
20260505100020 55 61 6.0 8.0 0.00 0.00 0.00 81 1011.2
20260505095719 55 63 4.0 12.0 0.00 0.00 0.00 82 1011.6
20260505095219 54 57 9.0 13.0 0.00 0.00 0.00 82 1011.5
20260505095019 54 57 9.0 13.0 0.00 0.00 0.00 82 1011.2
20260505094720 54 59 8.0 12.0 0.00 0.00 0.00 82 1011.6
20260505094219 54 63 5.0 8.0 0.00 0.00 0.00 82 1011.6
20260505094019 54 53 5.0 7.0 0.00 0.00 0.00 83 1011.3
20260505093719 54 52 7.0 13.0 0.00 0.00 0.00 83 1011.7
20260505093020 54 55 7.0 10.0 0.00 0.00 0.00 84 1011.3
20260505092219 53 60 9.0 12.0 0.00 0.00 0.00 84 1011.6
20260505091719 53 61 9.0 13.0 0.00 0.00 0.00 84 1011.6
20260505091219 53 55 8.0 12.0 0.00 0.00 0.00 84 1011.6
20260505091019 53 49 6.0 10.0 0.00 0.00 0.00 84 1011.3
20260505090719 53 52 6.0 9.0 0.00 0.00 0.00 84 1011.7
20260505090219 53 59 7.0 12.0 0.00 0.00 0.00 84 1011.7
20260505090019 53 64 7.0 11.0 0.00 0.00 0.00 84 1011.5
20260505085719 53 64 6.0 12.0 0.00 0.00 0.00 84 1011.8
20260505085019 53 55 8.0 10.0 0.00 0.00 0.00 84 1011.5
20260505084219 53 62 8.0 12.0 0.00 0.00 0.00 85 1011.9
20260505084019 52 62 7.0 11.0 0.00 0.00 0.00 85 1011.5
20260505083720 52 55 8.0 13.0 0.00 0.00 0.00 85 1011.9
20260505083219 52 63 6.0 12.0 0.00 0.00 0.00 85 1011.9
20260505083019 52 60 8.0 12.0 0.00 0.00 0.00 85 1011.6
20260505082719 52 60 5.0 9.0 0.00 0.00 0.00 85 1011.9
20260505081719 52 65 9.0 12.0 0.00 0.00 0.00 85 1011.9
20260505081219 52 65 9.0 12.0 0.00 0.00 0.00 85 1011.8
20260505080719 52 61 8.0 14.0 0.00 0.00 0.00 85 1011.8
20260505080219 52 54 10.0 13.0 0.00 0.00 0.00 85 1011.7
20260505080019 52 60 8.0 11.0 0.00 0.00 0.00 85 1011.5
20260505075719 52 55 8.0 14.0 0.00 0.00 0.00 85 1011.7
20260505075219 52 53 10.0 15.0 0.00 0.00 0.00 85 1011.7
20260505074719 52 60 6.0 10.0 0.00 0.00 0.00 85 1011.7
20260505074219 52 61 9.0 12.0 0.00 0.00 0.00 85 1011.6
20260505074020 52 62 7.0 10.0 0.00 0.00 0.00 85 1011.3
20260505073719 52 50 6.0 9.0 0.00 0.00 0.00 86 1011.6
20260505073020 52 59 7.0 10.0 0.00 0.00 0.00 86 1011.3
20260505072719 52 59 7.0 12.0 0.00 0.00 0.00 86 1011.5
20260505072219 51 56 6.0 12.0 0.00 0.00 0.00 86 1011.6
20260505072019 51 57 7.0 12.0 0.00 0.00 0.00 86 1011.3
20260505071019 51 59 7.0 11.0 0.00 0.00 0.00 86 1011.2
20260505070719 51 59 9.0 13.0 0.00 0.00 0.00 86 1011.5
20260505070219 51 61 7.0 12.0 0.00 0.00 0.00 86 1011.5
20260505070019 51 59 6.0 9.0 0.00 0.00 0.00 86 1011.3
20260505065719 51 57 9.0 13.0 0.00 0.00 0.00 86 1011.6
20260505065219 51 55 7.0 12.0 0.00 0.00 0.00 86 1011.7
20260505065019 51 57 8.0 12.0 0.00 0.00 0.00 86 1011.4
20260505064718 51 59 7.0 12.0 0.00 0.00 0.00 86 1011.7
20260505064219 51 59 6.0 10.0 0.00 0.00 0.00 86 1011.8
20260505064019 51 47 5.0 10.0 0.00 0.00 0.00 86 1011.5
20260505063719 51 25 3.0 7.0 0.00 0.00 0.00 86 1011.9
20260505063219 51 356 4.0 8.0 0.00 0.00 0.00 86 1011.9
20260505063019 51 26 4.0 10.0 0.00 0.00 0.00 86 1011.6
20260505062719 51 55 3.0 8.0 0.00 0.00 0.00 86 1012.0
20260505062019 51 59 7.0 10.0 0.00 0.00 0.00 86 1011.8
20260505061719 51 53 4.0 8.0 0.00 0.00 0.00 86 1012.1
20260505061219 51 60 5.0 12.0 0.00 0.00 0.00 86 1012.1
20260505061020 51 60 7.0 12.0 0.00 0.00 0.00 86 1011.8
20260505060719 51 60 7.0 12.0 0.00 0.00 0.00 86 1012.1
20260505060219 51 55 6.0 12.0 0.00 0.00 0.00 86 1012.1
20260505060019 51 50 5.0 7.0 0.00 0.00 0.00 86 1011.8
20260505055219 51 58 6.0 8.0 0.00 0.00 0.00 85 1012.1
20260505055019 51 53 5.0 7.0 0.00 0.00 0.00 86 1011.7
20260505054719 51 51 6.0 8.0 0.00 0.00 0.00 86 1012.0
20260505054219 51 34 2.0 6.0 0.00 0.00 0.00 85 1012.0
20260505054019 51 44 3.0 7.0 0.00 0.00 0.00 85 1011.8
20260505053218 51 54 4.0 7.0 0.00 0.00 0.00 85 1012.2
20260505053020 51 55 5.0 7.0 0.00 0.00 0.00 85 1011.9
20260505052218 51 46 2.0 5.0 0.00 0.00 0.00 85 1012.2
20260505051719 51 54 2.0 7.0 0.00 0.00 0.00 85 1012.2
20260505051019 51 58 4.0 9.0 0.00 0.00 0.00 85 1011.8
20260505050719 51 57 3.0 8.0 0.00 0.00 0.00 85 1012.1
20260505050219 51 61 5.0 9.0 0.00 0.00 0.00 85 1012.1
20260505041718 51 58 5.0 9.0 0.00 0.00 0.00 85 1012.0
20260505041219 51 58 7.0 10.0 0.00 0.00 0.00 85 1012.0
20260505040719 51 58 7.0 10.0 0.00 0.00 0.00 85 1011.9
20260505040218 51 63 7.0 12.0 0.00 0.00 0.00 85 1011.9
20260505040019 51 62 6.0 11.0 0.00 0.00 0.00 85 1011.6
20260505035218 51 60 7.0 12.0 0.00 0.00 0.00 85 1011.9
20260505035019 51 61 9.0 13.0 0.00 0.00 0.00 85 1011.6
20260505034019 51 60 8.0 11.0 0.00 0.00 0.00 85 1011.6
20260505033719 51 60 10.0 14.0 0.00 0.00 0.00 85 1011.9
20260505033019 51 60 8.0 12.0 0.00 0.00 0.00 85 1011.7
20260505032218 51 54 7.0 12.0 0.00 0.00 0.00 85 1012.0
20260505032019 51 60 8.0 12.0 0.00 0.00 0.00 85 1011.7
20260505031718 52 51 8.0 12.0 0.00 0.00 0.00 86 1012.0
20260505031019 51 56 6.0 8.0 0.00 0.00 0.00 86 1011.8
20260505030718 51 55 6.0 12.0 0.00 0.00 0.00 86 1012.1
20260505030219 51 58 6.0 12.0 0.00 0.00 0.00 86 1012.2
20260505030019 51 53 5.0 8.0 0.00 0.00 0.00 86 1011.8
20260505025719 51 59 7.0 10.0 0.00 0.00 0.00 86 1012.1
20260505025219 51 56 6.0 10.0 0.00 0.00 0.00 86 1012.1
20260505025019 51 55 6.0 10.0 0.00 0.00 0.00 86 1011.9
20260505024718 51 58 7.0 12.0 0.00 0.00 0.00 86 1012.1
20260505024218 51 60 7.0 13.0 0.00 0.00 0.00 86 1012.1
20260505024018 51 58 8.0 11.0 0.00 0.00 0.00 86 1011.8
20260505023019 52 61 8.0 10.0 0.00 0.00 0.00 86 1011.8
20260505022218 52 56 9.0 12.0 0.00 0.00 0.00 86 1012.1
20260505022019 52 58 7.0 11.0 0.00 0.00 0.00 86 1011.7
20260505021718 52 63 9.0 12.0 0.00 0.00 0.00 86 1012.0
20260505021218 52 60 10.0 13.0 0.00 0.00 0.00 86 1012.1
20260505021019 52 61 8.0 11.0 0.00 0.00 0.00 86 1011.9
20260505020718 52 62 6.0 10.0 0.00 0.00 0.00 86 1012.3
20260505020218 52 60 7.0 12.0 0.00 0.00 0.00 87 1012.3
20260505020019 52 58 8.0 11.0 0.00 0.00 0.00 87 1012.0
20260505015718 52 59 8.0 12.0 0.00 0.00 0.00 87 1012.3
20260505015218 52 54 10.0 16.0 0.00 0.00 0.00 87 1012.3
20260505014719 52 54 9.0 12.0 0.00 0.00 0.00 87 1012.2
20260505014218 52 54 7.0 12.0 0.00 0.00 0.00 88 1012.3
20260505014019 52 51 8.0 12.0 0.00 0.00 0.00 88 1012.0